Location: Estes Park
(40.3770°N, 105.5210°W)
Time: 02:04:55
(UTC-07:00)

Vanguard 3 - Visible Passes

Search period start: 13 December 2017 00:00
Search period end: 23 December 2017 00:00
Orbit: 509 x 3263 km, 33.3° (Epoch: 12 December)

Date Brightness Start Highest point End Pass type
(mag) Time Alt. Az. Time Alt. Az. Time Alt. Az.
13 Dec 10.1 18:21:57 10° SSW 18:23:05 11° SSW 18:24:18 10° S visible
14 Dec 9.7 17:07:07 10° SW 17:09:29 14° SSW 17:12:19 10° SSE visible
21 Dec 11.5 06:19:58 10° SSE 06:22:51 11° SSE 06:25:27 10° SE visible
